QPF
0.00 0.00 0.00 0.00 0.00 0.00 0.00 0.00 0.00 0.00 0.00 0.00 0.01 0.00 0.00 0.00 0.00 0.00 0.00 0.00 0.00 0.00 0.00 0.00 0.00 0.00 0.01 0.00 0.00 0.00 0.00 0.00 0.00
0.00 0.00 0.00 0.00 0.01 0.00 0.00 0.00 0.00 0.00 0.00 0.00 0.00 0.02 0.00 0.00 0.00 0.00 0.00 0.00 0.00 0.00 0.00 0.00 0.00 0.00 0.00 0.00 0.01 0.01 0.00 0.00 0.00
0.00 0.00 0.00 0.00 0.00 0.00 0.00 0.00 0.00 0.00 0.00 0.00 0.00 0.01 0.02 0.00 0.00 0.00 0.00 0.00 0.00 0.00 0.01 0.00 0.00 0.00 0.00 0.00 0.01 0.01 0.00 0.00 0.00
0.02 0.04 0.04 0.04 0.02 0.00 0.00 0.00 0.00 0.00 0.00 0.00 0.00 0.00 0.00 0.01 0.02 0.00 0.00 0.00 0.00 0.00 0.02 0.00 0.00 0.00 0.01 0.01 0.00 0.00 0.00 0.00 0.00
0.00 0.02 0.03 0.02 0.03 0.03 0.03 0.02 0.03 0.02 0.08 0.18 0.07 0.03 0.00 0.01 0.02 0.00 0.00 0.00 0.00 0.00 0.00 0.00 0.00 0.00 0.02 0.02 0.00 0.00 0.01 0.00 0.00
0.00 0.00 0.00 0.00 0.00 0.00 0.01 0.02 0.04 0.09 0.11 0.13 0.12 0.12 0.06 0.00 0.00 0.08 0.04 0.00 0.00 0.00 0.00 0.00 0.00 0.00 0.01 0.02 0.00 0.00 0.01 0.00 0.00
0.00 0.00 0.00 0.00 0.00 0.00 0.00 0.00 0.00 0.01 0.02 0.05 0.08 0.10 0.14 0.21 0.15 0.23 0.37 0.30 0.08 0.00 0.00 0.00 0.00 0.00 0.00 0.00 0.00 0.00 0.00 0.00 0.00
0.00 0.00 0.00 0.00 0.00 0.00 0.00 0.00 0.00 0.00 0.00 0.00 0.01 0.02 0.04 0.07 0.05 0.03 0.08 0.49 0.55 0.14 0.03 0.01 0.00 0.00 0.00 0.00 0.00 0.00 0.00 0.00 0.03
0.00 0.00 0.00 0.00 0.00 0.00 0.00 0.00 0.00 0.00 0.00 0.00 0.00 0.00 0.00 0.00 0.02 0.05 0.03 0.19 0.40 0.17 0.05 0.03 0.00 0.00 0.00 0.00 0.00 0.00 0.00 0.00 0.00
0.00 0.00 0.00 0.00 0.00 0.00 0.00 0.00 0.00 0.00 0.00 0.00 0.00 0.00 0.00 0.00 0.00 0.00 0.00 0.04 0.18 0.16 0.08 0.09 0.06 0.02 0.03 0.00 0.00 0.00 0.00 0.01 0.01
0.00 0.00 0.00 0.00 0.00 0.00 0.00 0.00 0.00 0.00 0.00 0.00 0.00 0.00 0.00 0.00 0.00 0.00 0.00 0.00 0.01 0.06 0.21 0.20 0.08 0.04 0.02 0.00 0.00 0.00 0.00 0.02 0.05
0.00 0.00 0.00 0.00 0.00 0.00 0.00 0.00 0.00 0.00 0.00 0.00 0.00 0.00 0.00 0.00 0.00 0.00 0.00 0.00 0.00 0.02 0.12 0.17 0.17 0.04 0.00 0.00 0.00 0.01 0.01 0.00 0.01
0.00 0.00 0.00 0.00 0.00 0.00 0.00 0.00 0.00 0.00 0.00 0.00 0.00 0.00 0.00 0.00 0.00 0.00 0.00 0.00 0.00 0.00 0.01 0.04 0.10 0.14 0.17 0.15 0.03 0.14 0.13 0.07 0.07
0.00 0.00 0.00 0.00 0.00 0.00 0.00 0.00 0.00 0.00 0.00 0.00 0.00 0.00 0.00 0.00 0.00 0.00 0.00 0.00 0.00 0.00 0.00 0.00 0.06 0.11 0.23 0.33 0.32 0.34 0.30 0.25 0.18
0.00 0.00 0.00 0.00 0.00 0.00 0.00 0.00 0.00 0.00 0.00 0.00 0.00 0.00 0.00 0.00 0.00 0.00 0.00 0.00 0.00 0.00 0.00 0.00 0.00 0.03 0.10 0.22 0.29 0.28 0.26 0.27 0.24
0.00 0.00 0.00 0.00 0.00 0.00 0.00 0.00 0.00 0.00 0.00 0.00 0.00 0.00 0.00 0.00 0.00 0.00 0.00 0.00 0.00 0.00 0.00 0.00 0.00 0.00 0.00 0.00 0.01 0.01 0.05 0.12 0.13
0.00 0.00 0.00 0.00 0.00 0.00 0.00 0.00 0.00 0.00 0.00 0.00 0.00 0.00 0.00 0.00 0.00 0.00 0.00 0.00 0.00 0.00 0.00 0.00 0.00 0.00 0.00 0.00 0.00 0.00 0.00 0.03 0.06
0.00 0.00 0.00 0.00 0.00 0.00 0.00 0.00 0.00 0.00 0.00 0.00 0.00 0.00 0.00 0.00 0.00 0.00 0.00 0.00 0.00 0.00 0.00 0.00 0.00 0.00 0.00 0.00 0.00 0.00 0.00 0.00 0.02
0.00 0.00 0.00 0.00 0.00 0.00 0.00 0.00 0.00 0.00 0.00 0.00 0.00 0.00 0.00 0.00 0.00 0.00 0.00 0.00 0.00 0.00 0.00 0.00 0.00 0.00 0.00 0.00 0.00 0.00 0.00 0.00 0.00
0.00 0.00 0.00 0.00 0.00 0.00 0.00 0.00 0.00 0.00 0.00 0.00 0.00 0.00 0.00 0.00 0.00 0.00 0.00 0.00 0.00 0.00 0.00 0.00 0.00 0.00 0.00 0.00 0.00 0.00 0.00 0.00 0.00
MSLP
1009.91 1010.12 1010.30 1010.50 1010.30 1010.30 1010.27 1010.55 1010.75 1011.23 1011.90 1012.56 1013.04 1013.09 1013.35 1013.67 1014.06 1014.42 1014.64 1014.96 1015.32 1015.37 1015.30 1015.42 1015.36 1015.49 1015.48 1015.61 1015.75 1015.90 1016.12 1016.68 1016.98
1010.10 1010.24 1010.39 1010.35 1010.44 1010.51 1010.45 1010.28 1010.44 1010.80 1011.50 1012.12 1012.56 1012.75 1012.89 1013.21 1013.62 1013.96 1014.11 1014.35 1014.67 1014.88 1014.95 1015.09 1015.30 1015.34 1015.51 1015.59 1015.55 1015.69 1016.04 1016.17 1016.39
1010.80 1010.60 1010.64 1010.90 1011.14 1010.76 1010.46 1010.54 1010.68 1010.91 1011.28 1011.56 1011.90 1012.28 1012.74 1012.96 1013.08 1013.31 1013.58 1013.80 1013.96 1014.20 1014.43 1014.76 1015.00 1015.18 1015.28 1015.27 1015.42 1015.64 1015.81 1015.97 1015.85
1011.61 1012.19 1011.74 1011.90 1011.68 1011.52 1011.14 1011.05 1010.97 1011.40 1011.69 1011.88 1011.97 1012.12 1012.55 1012.75 1012.80 1012.87 1012.97 1013.28 1013.33 1013.57 1013.81 1014.02 1014.34 1014.55 1014.61 1014.64 1015.00 1015.27 1015.51 1015.70 1015.73
1012.01 1012.28 1012.29 1012.54 1012.45 1012.28 1011.94 1011.86 1011.93 1011.91 1011.75 1011.91 1011.82 1012.04 1012.26 1012.39 1012.47 1012.34 1012.44 1012.45 1012.62 1012.87 1013.17 1013.40 1013.53 1013.83 1014.03 1014.39 1014.62 1014.86 1015.07 1015.27 1015.28
1012.27 1012.58 1012.59 1012.86 1012.89 1012.91 1012.69 1012.60 1012.53 1012.36 1012.43 1012.30 1012.10 1011.94 1012.00 1011.88 1011.83 1011.97 1011.81 1011.75 1011.87 1012.13 1012.54 1012.70 1012.94 1013.26 1013.53 1013.75 1014.01 1014.21 1014.48 1014.71 1014.84
1012.01 1012.25 1012.19 1012.54 1012.89 1013.12 1012.95 1012.90 1012.89 1012.81 1012.72 1012.52 1012.27 1012.18 1012.10 1011.81 1011.72 1011.50 1011.43 1011.32 1011.18 1011.67 1011.81 1012.10 1012.19 1012.39 1012.74 1013.10 1013.37 1013.68 1013.98 1014.33 1014.47
1012.11 1012.20 1012.26 1012.38 1012.39 1012.62 1012.72 1012.76 1012.80 1012.83 1012.71 1012.51 1012.34 1012.22 1012.00 1011.77 1011.52 1011.30 1011.21 1011.46 1011.26 1011.36 1011.76 1011.89 1011.71 1011.88 1012.10 1012.34 1012.80 1013.02 1013.33 1013.48 1013.70
1012.22 1012.28 1012.47 1012.57 1012.53 1012.60 1012.73 1012.81 1012.89 1012.66 1012.57 1012.38 1012.16 1012.12 1011.98 1011.65 1011.27 1010.98 1010.95 1010.89 1010.87 1010.99 1010.89 1011.31 1011.00 1011.16 1011.49 1011.77 1011.93 1011.90 1012.19 1012.61 1012.84
1012.49 1012.74 1012.74 1012.74 1012.84 1012.73 1012.79 1012.79 1012.63 1012.57 1012.25 1012.06 1011.91 1011.83 1011.62 1011.41 1011.18 1011.04 1010.86 1010.44 1010.23 1010.22 1010.02 1009.95 1010.22 1010.34 1010.73 1010.73 1010.88 1010.94 1011.12 1011.46 1011.91
1012.97 1012.94 1012.96 1012.96 1012.82 1012.76 1012.64 1012.26 1012.10 1011.95 1011.88 1011.72 1011.63 1011.59 1011.35 1011.02 1010.73 1010.55 1010.39 1010.30 1010.11 1009.89 1009.72 1009.69 1009.67 1009.58 1009.56 1009.51 1009.44 1009.75 1010.13 1010.44 1010.97
1012.81 1012.75 1012.70 1012.64 1012.83 1012.84 1012.61 1012.46 1012.27 1012.17 1011.99 1011.75 1011.62 1011.38 1011.07 1010.77 1010.47 1010.13 1009.93 1009.81 1009.78 1009.63 1009.47 1009.37 1009.27 1009.01 1008.78 1008.71 1008.63 1008.74 1009.02 1009.65 1010.18
1013.32 1013.26 1013.06 1012.90 1012.76 1012.69 1012.73 1012.60 1012.34 1012.03 1011.76 1011.58 1011.45 1010.97 1010.60 1010.24 1010.01 1009.82 1009.53 1009.25 1009.16 1009.13 1009.04 1008.90 1008.65 1008.46 1008.24 1007.92 1007.95 1007.89 1008.15 1008.93 1009.43
1013.39 1013.29 1013.21 1013.13 1013.10 1013.15 1012.95 1012.59 1012.34 1012.27 1011.93 1011.69 1011.03 1010.57 1010.12 1009.71 1009.31 1009.19 1008.93 1008.65 1008.49 1008.51 1008.59 1008.52 1008.37 1008.22 1007.94 1007.78 1007.74 1007.93 1008.26 1008.46 1009.20
1013.71 1013.66 1013.43 1013.25 1013.29 1013.25 1012.87 1012.52 1012.18 1012.04 1011.67 1011.03 1010.54 1010.04 1009.60 1009.25 1008.80 1008.27 1008.10 1008.13 1007.95 1007.86 1007.91 1007.98 1008.05 1007.98 1007.60 1007.52 1007.95 1007.49 1007.18 1007.51 1008.45
1014.11 1013.92 1013.71 1013.53 1013.49 1013.20 1012.70 1012.33 1011.99 1011.70 1011.04 1010.55 1010.07 1009.57 1009.08 1008.62 1008.18 1007.65 1007.37 1007.41 1007.35 1007.27 1007.19 1007.35 1007.47 1007.72 1007.53 1006.96 1006.87 1007.28 1007.00 1006.85 1005.78
1014.41 1014.15 1013.90 1013.58 1013.25 1012.96 1012.60 1012.10 1011.64 1011.18 1010.58 1009.93 1009.52 1008.98 1008.42 1007.98 1007.55 1006.96 1006.66 1006.55 1006.48 1006.39 1006.30 1006.38 1006.54 1006.68 1006.71 1006.36 1006.54 1006.40 1006.33 1006.25 1005.67
1014.53 1014.28 1013.93 1013.58 1013.34 1012.97 1012.43 1011.84 1011.21 1010.60 1009.94 1009.39 1008.90 1008.28 1007.73 1007.26 1006.81 1006.31 1005.99 1005.74 1005.48 1005.30 1004.94 1004.94 1005.11 1005.23 1005.20 1005.53 1005.80 1005.45 1005.14 1005.52 1005.49
1014.52 1014.26 1013.91 1013.53 1013.21 1012.82 1012.13 1011.49 1010.83 1010.18 1009.41 1008.91 1008.37 1007.85 1007.19 1006.60 1006.05 1005.58 1005.32 1005.02 1004.50 1004.06 1003.88 1003.74 1003.82 1003.82 1003.83 1003.72 1003.96 1004.23 1004.58 1005.03 1005.37
1014.35 1014.12 1013.75 1013.39 1013.06 1012.50 1011.81 1011.17 1010.67 1010.11 1009.42 1008.82 1008.05 1007.54 1006.78 1006.07 1005.45 1005.00 1004.68 1004.34 1004.09 1003.55 1002.89 1002.89 1002.93 1003.10 1003.08 1003.17 1002.95 1003.58 1003.97 1004.64 1004.93
Thickness
5802 5800 5800 5800 5804 5805 5808 5807 5808 5804 5795 5788 5785 5786 5784 5781 5778 5775 5774 5771 5767 5769 5770 5769 5770 5769 5769 5769 5769 5769 5768 5765 5763
5801 5803 5804 5805 5805 5804 5805 5810 5809 5807 5799 5792 5789 5789 5788 5784 5781 5778 5777 5775 5773 5771 5771 5771 5770 5770 5767 5767 5766 5767 5768 5768 5766
5791 5798 5799 5798 5798 5803 5810 5809 5808 5806 5803 5799 5797 5794 5790 5786 5785 5782 5779 5777 5777 5775 5774 5770 5767 5765 5764 5765 5764 5762 5762 5764 5769
5777 5778 5785 5786 5790 5796 5800 5803 5804 5799 5797 5796 5796 5793 5789 5786 5785 5784 5783 5779 5779 5779 5776 5773 5768 5766 5765 5764 5763 5763 5761 5760 5761
5779 5778 5778 5779 5782 5784 5789 5792 5792 5793 5796 5793 5795 5793 5789 5787 5787 5788 5785 5785 5782 5782 5779 5777 5773 5770 5767 5763 5761 5759 5759 5757 5760
5777 5776 5776 5774 5774 5774 5777 5780 5783 5785 5786 5786 5788 5788 5788 5788 5787 5785 5786 5786 5784 5783 5780 5778 5775 5770 5768 5766 5763 5759 5759 5758 5759
5779 5778 5780 5777 5772 5768 5771 5772 5772 5773 5777 5779 5780 5781 5782 5782 5781 5783 5781 5779 5779 5778 5779 5777 5776 5772 5769 5766 5764 5761 5759 5757 5755
5774 5775 5774 5774 5772 5769 5766 5766 5767 5767 5767 5768 5771 5772 5774 5777 5779 5779 5778 5776 5775 5771 5765 5768 5774 5772 5768 5765 5762 5761 5758 5757 5755
5765 5767 5767 5767 5768 5768 5764 5762 5759 5760 5759 5760 5762 5760 5762 5767 5771 5772 5769 5769 5770 5766 5768 5763 5771 5771 5767 5763 5763 5763 5761 5759 5758
5755 5754 5756 5759 5757 5757 5756 5755 5756 5754 5755 5755 5753 5752 5752 5753 5755 5756 5757 5760 5762 5764 5766 5767 5767 5768 5765 5764 5764 5764 5764 5761 5759
5739 5742 5744 5745 5747 5748 5749 5752 5753 5753 5750 5749 5747 5744 5743 5743 5743 5744 5745 5746 5748 5751 5755 5757 5758 5761 5764 5765 5769 5764 5762 5761 5758
5737 5739 5740 5739 5738 5738 5739 5740 5741 5740 5738 5738 5735 5733 5733 5734 5734 5735 5736 5735 5735 5738 5740 5744 5748 5753 5757 5760 5763 5762 5760 5755 5754
5726 5724 5726 5728 5731 5730 5728 5728 5731 5731 5730 5728 5725 5725 5725 5725 5725 5726 5727 5729 5729 5729 5730 5732 5736 5743 5748 5752 5755 5756 5754 5748 5747
5724 5722 5720 5720 5718 5717 5718 5719 5719 5717 5716 5713 5717 5718 5718 5718 5717 5717 5719 5722 5722 5722 5721 5722 5722 5726 5733 5739 5741 5741 5740 5740 5736
5713 5710 5710 5711 5708 5708 5709 5709 5709 5707 5704 5708 5708 5708 5709 5709 5710 5713 5714 5710 5712 5712 5711 5711 5710 5710 5718 5722 5719 5714 5720 5731 5724
5701 5701 5701 5701 5698 5698 5700 5700 5699 5697 5698 5698 5697 5698 5699 5700 5701 5702 5702 5699 5700 5701 5701 5701 5702 5700 5703 5710 5714 5708 5708 5712 5696
5690 5691 5691 5692 5692 5691 5690 5690 5689 5687 5688 5688 5688 5690 5691 5690 5689 5691 5692 5690 5692 5694 5696 5696 5696 5696 5697 5703 5702 5705 5710 5711 5709
5681 5681 5682 5682 5681 5681 5681 5682 5681 5681 5680 5680 5681 5683 5684 5684 5684 5684 5683 5683 5687 5687 5693 5695 5694 5696 5700 5697 5695 5701 5706 5704 5704
5672 5671 5672 5672 5671 5670 5672 5672 5673 5673 5673 5673 5674 5674 5675 5677 5679 5680 5679 5679 5681 5684 5686 5688 5689 5692 5698 5704 5703 5698 5693 5692 5690
5664 5663 5662 5662 5661 5662 5663 5663 5662 5661 5662 5661 5663 5662 5666 5669 5670 5672 5672 5673 5672 5675 5681 5680 5681 5682 5686 5689 5697 5689 5687 5683 5681